Content
SEND FEEDBACK

Daily
Averages
Monthly
Summary
United States of America

PARKER, COLORADO


Home > North America > United States > Colorado
Elevation: 6225 feet     Latitude: 39 31N     Longitude: 104 39W

WEATHER
 
SELECT A DAY
Number of Records: 74,099;   Date Range: 5/2/06 - 7/29/14
 
SHARE

PRINT THIS DATA

[ ← Previous Day ]
WEATHER ALMANAC - JANUARY 23, 2013
[ Next Day → ]
[ °C ]   °F
Weather ElementAverageHighLow
Temperature42.2 °F60.8 °F (12:50 pm)32 °F (2:05 am)
Dewpoint7.4 °F19.4 °F (2:50 pm)-2.2 °F (1:26 am)
Humidity26.2 %41 % (2:46 am)12 % (7:50 am)
Barometer30.14 in30.16 in (1:46 am)30.12 in (12:50 pm)
Wind Speed9.7 mph16.1 mph (6:26 am)
Weather ElementAverage
Visibility19.5 mi
Wind DirectionS (183.8 °)

Weather ElementTotal
Precipitation---
Heating Degree Days18.6 (Base 65)
Averaged from 42 records on January 23, 2013
WEATHER CONDITIONS BREAKOUT
WIND DIRECTION BREAKOUT
WEATHER BY HOUR - JANUARY 23, 2013
[ °C ]   °F
Local TimeTemperatureDewpointHumidityBarometerVisibilityWind DirectionWind SpeedGust SpeedPrecipitationEventsConditions
12:26 AM44.6 °F-0.4 °F15 %30.15 in10.0 miSSW (210°)13.8 mphClear
12:46 AM44.6 °F-0.4 °F15 %30.14 in10.0 miSW (220°)15.0 mphClear
1:06 AM44.6 °F-0.4 °F15 %30.14 in10.0 miSW (220°)12.7 mphClear
1:26 AM44.6 °F-2.2 °F14 %30.15 in10.0 miSSW (210°)11.5 mphClear
1:46 AM33.8 °F8.6 °F35 %30.16 in10.0 miSouth (190°)9.2 mphClear
2:05 AM32.0 °F8.6 °F38 %30.16 in10.0 miSSW (210°)10.4 mphClear
2:25 AM35.6 °F5.0 °F28 %30.15 in10.0 miSSW (210°)8.1 mphClear
2:46 AM32.0 °F10.4 °F41 %30.16 in10.0 miSSW (200°)10.4 mphClear
3:06 AM32.0 °F10.4 °F41 %30.14 in10.0 miSouth (170°)8.1 mphClear
3:26 AM32.0 °F10.4 °F41 %30.14 in10.0 miSouth (180°)9.2 mphClear
3:46 AM32.0 °F10.4 °F41 %30.13 in10.0 miSouth (190°)9.2 mphClear
4:05 AM32.0 °F10.4 °F41 %30.14 in10.0 miSouth (190°)9.2 mphClear
4:26 AM32.0 °F8.6 °F38 %30.14 in10.0 miSouth (190°)8.1 mphClear
4:46 AM32.0 °F8.6 °F38 %30.14 in10.0 miSouth (190°)8.1 mphClear
5:06 AM32.0 °F8.6 °F38 %30.14 in10.0 miSouth (190°)10.4 mphClear
5:26 AM32.0 °F6.8 °F35 %30.14 in10.0 miSouth (190°)12.7 mphClear
5:46 AM35.6 °F5.0 °F28 %30.14 in10.0 miSouth (190°)10.4 mphClear
6:06 AM35.6 °F5.0 °F28 %30.14 in10.0 miSouth (180°)9.2 mphClear
6:26 AM39.2 °F1.4 °F21 %30.14 in10.0 miSSW (210°)16.1 mphClear
6:46 AM44.6 °F-0.4 °F15 %30.14 in10.0 miSSW (200°)11.5 mphClear
7:06 AM44.6 °F-0.4 °F15 %30.14 in10.0 miSSW (210°)12.7 mphClear
7:25 AM46.4 °F-0.4 °F14 %30.14 in10.0 miSW (220°)15.0 mphClear
7:30 AM46.4 °F-0.4 °F14 %30.14 in10.0 miSW (220°)15.0 mphClear
7:50 AM50.0 °F-2.2 °F12 %30.15 in50.0 miSSW (210°)12.7 mphMostly Cloudy
8:50 AM53.6 °F1.4 °F12 %30.15 in50.0 miSW (220°)11.5 mphMostly Cloudy
9:50 AM55.4 °F3.2 °F12 %30.16 in50.0 miSSW (210°)13.8 mphMostly Cloudy
11:50 AM59.0 °F5.0 °F12 %30.14 in50.0 miSW (230°)9.2 mphMostly Cloudy
12:50 PM60.8 °F6.8 °F12 %30.12 in50.0 miSW (230°)4.6 mphMostly Cloudy
1:55 PM59.0 °F8.6 °F14 %30.13 in50.0 miCalmMostly Cloudy
2:50 PM57.2 °F19.4 °F23 %30.12 in50.0 miESE (110°)8.1 mphMostly Cloudy
5:50 PM44.6 °F15.8 °F31 %30.14 in50.0 miSE (130°)6.9 mphOvercast
6:50 PM44.6 °F10.4 °F25 %30.14 in50.0 miSE (130°)9.2 mphOvercast
7:50 PM42.8 °F12.2 °F29 %30.14 in50.0 miSSE (160°)6.9 mphMostly Cloudy
9:06 PM44.6 °F6.8 °F21 %30.16 in10.0 miSouth (170°)4.6 mphClear
9:26 PM44.6 °F12.2 °F27 %30.16 in10.0 miCalmClear
9:46 PM41.0 °F15.8 °F36 %30.15 in10.0 miSE (140°)8.1 mphClear
10:06 PM42.8 °F10.4 °F27 %30.13 in10.0 miSSE (160°)11.5 mphClear
10:26 PM41.0 °F14.0 °F33 %30.13 in10.0 miSouth (180°)8.1 mphClear
10:46 PM41.0 °F15.8 °F36 %30.13 in10.0 miSSW (200°)9.2 mphClear
11:06 PM41.0 °F15.8 °F36 %30.12 in10.0 miSSW (210°)6.9 mphClear
11:26 PM44.6 °F12.2 °F27 %30.12 in10.0 miSW (220°)10.4 mphClear
11:45 PM46.4 °F12.2 °F25 %30.12 in10.0 miSW (220°)9.2 mphClear
Hourly data recorded from KFTG, located miles away from Parker, Colorado







STORIES FROM OUR PARTNERS